Content
SEND FEEDBACK

Daily
Averages
Monthly
Summary
United States of America

DORSET, VERMONT


Home > North America > United States > Vermont
Elevation: 980 feet     Latitude: 43 15N     Longitude: 073 06W

WEATHER
 
SELECT A DAY
Number of Records: 460,653;   Date Range: 1/1/95 - 9/29/14
 
SHARE

PRINT THIS DATA

[ ← Previous Day ]
WEATHER ALMANAC - SEPTEMBER 2, 2014
[ Next Day → ]
[ °C ]   °F
Weather ElementAverageHighLow
Temperature73.1 °F82.4 °F (3:15 pm)64.4 °F (1:35 am)
Dewpoint66.3 °F69.8 °F (9:15 am)62.6 °F (12:35 am)
Humidity80.3 %100 % (11:35 pm)58 % (3:15 pm)
Barometer29.84 in29.93 in (12:35 am)29.72 in (9:15 pm)
Wind Speed6.2 mph11.5 mph (2:35 pm)
Wind Gust23 mph (9:55 pm)
Weather ElementAverage
Visibility9.8 mi
Wind DirectionSSE (152.6 °)

Weather ElementTotal
Precipitation1.33 in
Cooling Degree Days8.4 (Base 65)
Growing Degree Days23.4 (Base 50)
Averaged from 70 records on September 2, 2014
WEATHER CONDITIONS BREAKOUT
WIND DIRECTION BREAKOUT
WEATHER BY HOUR - SEPTEMBER 2, 2014
[ °C ]   °F
Local TimeTemperatureDewpointHumidityBarometerVisibilityWind DirectionWind SpeedGust SpeedPrecipitationEventsConditions
12:35 AM66.2 °F62.6 °F88 %29.93 in10.0 miSE (140°)5.8 mphScattered Clouds
12:55 AM66.2 °F62.6 °F88 %29.92 in10.0 miSouth (180°)3.5 mphPartly Cloudy
1:15 AM66.2 °F62.6 °F88 %29.92 in10.0 miSSE (150°)4.6 mphClear
1:35 AM64.4 °F62.6 °F94 %29.91 in10.0 miSSE (150°)6.9 mphClear
1:55 AM66.2 °F62.6 °F88 %29.91 in10.0 miSE (140°)8.1 mphClear
2:15 AM64.4 °F62.6 °F94 %29.91 in10.0 miSSE (150°)8.1 mphScattered Clouds
2:35 AM66.2 °F62.6 °F88 %29.90 in10.0 miESE (120°)10.4 mphMostly Cloudy
2:55 AM66.2 °F62.6 °F88 %29.89 in10.0 miSouth (170°)4.6 mphMostly Cloudy
3:15 AM66.2 °F62.6 °F88 %29.89 in10.0 miSouth (180°)3.5 mphScattered Clouds
3:35 AM66.2 °F62.6 °F88 %29.89 in10.0 miSE (130°)8.1 mphMostly Cloudy
3:55 AM66.2 °F64.4 °F94 %29.89 in10.0 miSE (140°)6.9 mphOvercast
4:15 AM66.2 °F64.4 °F94 %29.88 in10.0 miESE (120°)8.1 mphOvercast
4:35 AM66.2 °F64.4 °F94 %29.88 in10.0 miSE (140°)5.8 mphOvercast
4:55 AM68.0 °F64.4 °F88 %29.88 in10.0 miESE (120°)9.2 mphOvercast
5:15 AM69.8 °F64.4 °F83 %29.88 in10.0 miESE (120°)5.8 mphOvercast
5:35 AM68.0 °F64.4 °F88 %29.88 in10.0 miESE (120°)8.1 mphOvercast
5:55 AM68.0 °F64.4 °F88 %29.88 in10.0 miESE (120°)9.2 mphMostly Cloudy
6:15 AM66.2 °F64.4 °F94 %29.89 in10.0 miSE (130°)6.9 mphMostly Cloudy
6:35 AM66.2 °F64.4 °F94 %29.89 in10.0 miSE (130°)8.1 mphOvercast
6:55 AM68.0 °F64.4 °F88 %29.90 in10.0 miSE (130°)6.9 mphOvercast
7:15 AM69.8 °F64.4 °F83 %29.90 in10.0 miESE (120°)5.8 mphOvercast
7:35 AM69.8 °F64.4 °F83 %29.91 in10.0 miSE (130°)6.9 mphOvercast
7:55 AM69.8 °F64.4 °F83 %29.91 in10.0 miSE (130°)6.9 mphMostly Cloudy
8:15 AM69.8 °F66.2 °F88 %29.91 in10.0 miSE (130°)6.9 mphMostly Cloudy
8:35 AM69.8 °F66.2 °F88 %29.90 in10.0 miSE (140°)5.8 mphOvercast
8:55 AM71.6 °F66.2 °F83 %29.89 in10.0 miSE (130°)6.9 mphOvercast
9:15 AM73.4 °F69.8 °F88 %29.90 in10.0 miCalmMostly Cloudy
9:35 AM75.2 °F69.8 °F83 %29.91 in10.0 miCalmMostly Cloudy
9:55 AM75.2 °F69.8 °F83 %29.90 in10.0 miSSW (210°)3.5 mphOvercast
10:15 AM77.0 °F69.8 °F78 %29.89 in10.0 miWSW (240°)6.9 mphMostly Cloudy
10:35 AM78.8 °F69.8 °F74 %29.89 in10.0 miSW (230°)4.6 mphMostly Cloudy
10:55 AM77.0 °F69.8 °F78 %29.90 in10.0 miWSW (240°)6.9 mphOvercast
11:15 AM77.0 °F69.8 °F78 %29.90 in10.0 miSW (230°)8.1 mphOvercast
11:35 AM75.2 °F68.0 °F78 %29.90 in10.0 miSW (230°)5.8 mphOvercast
11:55 AM75.2 °F69.8 °F83 %29.89 in10.0 miSSW (210°)6.9 mphOvercast
12:15 PM75.2 °F69.8 °F83 %29.88 in10.0 miSouth (190°)4.6 mphOvercast
12:35 PM77.0 °F69.8 °F78 %29.87 in10.0 miSouth (180°)5.8 mphOvercast
12:55 PM78.8 °F69.8 °F74 %29.86 in10.0 miSSE (160°)6.9 mphMostly Cloudy
1:15 PM78.8 °F69.8 °F74 %29.85 in10.0 miSSE (160°)8.1 mphMostly Cloudy
1:35 PM78.8 °F69.8 °F74 %29.85 in10.0 miSW (230°)8.1 mphMostly Cloudy
1:55 PM80.6 °F69.8 °F70 %29.85 in10.0 miSouth (190°)8.1 mphMostly Cloudy
2:15 PM80.6 °F68.0 °F65 %29.85 in10.0 miWest (260°)5.8 mphScattered Clouds
2:35 PM80.6 °F68.0 °F65 %29.84 in10.0 miSW (230°)11.5 mphPartly Cloudy
2:55 PM80.6 °F68.0 °F65 %29.83 in10.0 miSouth (180°)9.2 mphMostly Cloudy
3:15 PM82.4 °F66.2 °F58 %29.82 in10.0 miCalmMostly Cloudy
3:35 PM82.4 °F68.0 °F62 %29.80 in10.0 miSouth (180°)8.1 mphMostly Cloudy
3:55 PM82.4 °F68.0 °F62 %29.80 in10.0 miSSW (200°)8.1 mphScattered Clouds
4:15 PM82.4 °F66.2 °F58 %29.80 in10.0 miSouth (190°)4.6 mphMostly Cloudy
4:35 PM82.4 °F66.2 °F58 %29.79 in10.0 miSouth (190°)5.8 mphMostly Cloudy
4:55 PM82.4 °F66.2 °F58 %29.79 in10.0 miSouth (190°)9.2 mphPartly Cloudy
5:15 PM82.4 °F66.2 °F58 %29.79 in10.0 miSSW (210°)5.8 mphClear
5:35 PM82.4 °F66.2 °F58 %29.78 in10.0 miSSW (210°)6.9 mphClear
5:55 PM80.6 °F68.0 °F65 %29.78 in10.0 miSouth (190°)3.5 mphClear
6:15 PM80.6 °F68.0 °F65 %29.77 in10.0 miSSW (200°)4.6 mphClear
6:55 PM78.8 °F68.0 °F69 %29.75 in10.0 miSSE (160°)4.6 mphClear
7:15 PM75.2 °F68.0 °F78 %29.75 in10.0 miSE (140°)4.6 mphClear
7:35 PM75.2 °F66.2 °F73 %29.75 in10.0 miSE (140°)6.9 mphClear
7:55 PM73.4 °F66.2 °F78 %29.75 in10.0 miSE (130°)6.9 mphClear
8:15 PM73.4 °F66.2 °F78 %29.75 in10.0 miESE (120°)8.1 mphScattered Clouds
8:35 PM73.4 °F66.2 °F78 %29.75 in10.0 miSE (140°)8.1 mphScattered Clouds
8:55 PM73.4 °F66.2 °F78 %29.73 in10.0 miSE (130°)11.5 mphMostly Cloudy
9:15 PM73.4 °F66.2 °F78 %29.72 in10.0 miSE (140°)9.2 mphScattered Clouds
9:35 PM73.4 °F66.2 °F78 %29.72 in10.0 miSSE (160°)4.6 mphMostly Cloudy
9:55 PM71.6 °F66.2 °F83 %29.76 in5.0 miNorth (360°)11.5 mph23.0 mph0.23 inOvercast
10:15 PM69.8 °F66.2 °F88 %29.76 in10.0 miNNE (20°)6.9 mph0.04 inOvercast
10:35 PM68.0 °F66.2 °F94 %29.77 in5.0 miCalm0.29 inOvercast
10:55 PM68.0 °F66.2 °F94 %29.79 in10.0 miCalm0.34 inOvercast
11:15 PM68.0 °F66.2 °F94 %29.78 in5.0 miNorth (350°)3.5 mph0.12 inMostly Cloudy
11:35 PM66.2 °F66.2 °F100 %29.77 in9.0 miCalm0.15 inOvercast
11:55 PM66.2 °F66.2 °F100 %29.76 in10.0 miCalm0.16 inOvercast
Hourly data recorded from KRUT, located miles away from Dorset, Vermont







STORIES FROM OUR PARTNERS